CZ-2D DEB, 43487

Orbit data source: Space-Track

CZ-2D DEB, 43487 is space debris in SSO originally from a launch on Sat, 02 Jun 2018 UTC launched from the Jiuquan Satellite Launch Center, China (JSC). Debris objects in space refer to the collection of defunct objects orbiting the Earth. Examples of debris include non-operational satellites, rocket bodies, and fragments generated from explosions, collisions, or faulty payload assembly.

Loading next visibility...
Identifier
43487, 2018-048D
Orbit
SSO
Country
Flag of CNCN / PRC
Related business
Manufacturer
CALT
Mission
Spacecraft
Bus & Motor
Unknown
Mass
1 kg wet, 1 kg dry
Launch date (UTC)
2018-06-02 (8 years ago)
Launch vehicle
Unknown
Launch site
Jiuquan Satellite Launch Center, China (JSC)
Object type
Payload
Rocket body
Debris
Shape & HBR
Cone, 0.1 m
Radar Cross Section
0.025 m², Medium (>0.1 m² and < 1m²)

Expand to show TLE details & history
Last TLE update: 11 hours ago

TLE from 11 hours ago
0 CZ-2D DEB
1 43487U 18048D   26256.26298631  .00001922  00000-0  20008-3 0  9992
2 43487  97.6144 259.8869 0026941 127.6820 232.6848 14.90696926447161
Epoch: 2026-09-13T06:18Z
TLE epoch observation values (Epoch: 2026-09-13T06:18:42.017Z)
Latitude
0.00002°
Longitude
172.95168°
Altitude
610.23 km
Speed
7.548 km/s
True Right ascension
17h 19m 32s
True Declination
0° 00' 00"
Sunlit
Object was in daylight at epoch
Visualization orbit readout
Latitude
Unknown
Longitude
Unknown
Altitude
Unknown
Speed
Unknown
Apparent Right ascension
Unknown
Apparent Declination
Unknown
Sunlit
N/A
Visualization observer readout
Local Sidereal Time
09:53:48
Azimuth
Unknown
Elevation
Unknown
Doppler factor
Unknown
Orbital elements
Apogee altitude
611.555 km
Perigee altitude
573.995 km
Semi-major axis
6,970.912 km
Eccentricity
0.00269
Inclination
97.6144°
RAAN
259.8869°
Arg. of periapsis
127.682°
True anomaly
232.43977°
Mean anomaly
232.6848°
Eccentric anomaly
232.56224°
Mean motion
3.72914 °/min
Orbital period
96.54 mins
BSTAR
0.00020008
Loading maneuver chart data...
Computing Atmospheric mass density...
Loading historical data...
Loading historical data...
Loading historical data...
Loading historical data...
Loading historical data...
Loading historical data...
Loading historical data...
Other satellites on launch #48 in the year 2018 (2018-06-02 UTC)

Documentation

Showing up to 5 results
|